Starlink 4796

operational
NORAD ID: 53909 Int'l Des: 2022-119 Owner: SPXS Country: US Constellation: starlink
LEOCIRCULAR

Starlink 4796について

説明を読み込み中...

リアルタイム位置

3D地球を読み込み中...

次回通過

高度履歴

Altitude vs Time

uPlot chart will show altitude changes over time

軌道要素

1 53909U 22119Z 25342.36092226 -.00007006 00000-0 -42221-3 0 9996
2 53909 53.2199 4.3684 0001100 75.1369 284.9745 15.08868406178039
Epoch: Dec 8, 2025 • Age: 18 hours

現在のステータス

高度 544.7 km
速度 7.60 km/s
衛星直下点 49.16°N, 4.08°E
打ち上げ日 Sep 24, 2022
運用期間 3.2 years
タイプ internet

技術仕様

分類 Payload
質量 305.00 kg
乾燥質量 290.00 kg
総質量 305.00 kg
長さ 0.20 m
直径 2.80 m
スパン 9.00 m
形状 Box + pan
製造者 SPXS
バスタイプ Starlink
フェーズステータス In Orbit
所有者/国 SPXS/US

大規模コンステレーション

Loading constellations...